This demonstration page uses our WeatherBlox Daily Observations layout. Learn more.

Left ArrowRight Arrow

34.74481, -87.66753

Hourly Observations for July 17, 2022

Temp ( °F °C ) Dew Point ( °F °C ) Humidity (%) Winds ( mph kmh ) Pressure ( in mb ) Visibility ( mi km ) Precip ( " mm )
12:53 am 00:53 Clear 77 25 70 21.1 79 79 Calm 29.98 1015 10 16 0.00 0.00
1:53 am 01:53 Clear 76 24.4 70 21.1 82 82 SSE 5 7 29.97 1015 10 16 0.00 0.00
2:53 am 02:53 Clear 76 24.4 69 20.6 79 79 SSE 3 6 29.96 1015 10 16 0.00 0.00
3:53 am 03:53 Clear 76 24.4 69 20.6 79 79 Calm 29.96 1015 10 16 0.00 0.00
4:53 am 04:53 Clear 74 23.3 69 20.6 85 85 Calm 29.96 1015 10 16 0.00 0.00
5:53 am 05:53 Sunny 74 23.3 69 20.6 85 85 Calm 29.98 1015 10 16 0.00 0.00
6:53 am 06:53 Sunny 76 24.4 70 21.1 82 82 Calm 30.00 1016 10 16 0.00 0.00
7:53 am 07:53 Sunny 80 26.7 71 21.7 74 74 S 6 9 30.00 1016 10 16 0.00 0.00
8:53 am 08:53 Sunny 85 29.4 71 21.7 63 63 S 6 9 30.00 1016 10 16 0.00 0.00
9:53 am 09:53 Sunny 89 31.7 71 21.7 55 55 SW 6 9 29.99 1016 10 16 0.00 0.00
10:53 am 10:53 Sunny 90 32.2 70 21.1 52 52 SSW 3 6 29.98 1015 10 16 0.00 0.00
11:53 am 11:53 Mostly Sunny 91 32.8 70 21.1 50 50 WSW 8 13 29.99 1016 10 16 0.00 0.00
12:53 pm 12:53 Mostly Sunny 93 33.9 67 19.4 42 42 SW 9 15 29.98 1015 10 16 0.00 0.00
1:53 pm 13:53 Mostly Sunny 93 33.9 69 20.6 46 46 S 8 13 29.96 1015 10 16 0.00 0.00
2:53 pm 14:53 Partly Cloudy 93 33.9 70 21.1 47 47 SSW 9 15 29.95 1014 10 16 0.00 0.00
3:53 pm 15:53 Mostly Cloudy 94 34.4 71 21.7 48 48 SSW 8 13 29.92 1013 10 16 0.00 0.00
4:53 pm 16:53 Partly Cloudy 94 34.4 69 20.6 44 44 S 10 17 29.91 1013 10 16 0.00 0.00
5:53 pm 17:53 Sunny 92 33.3 70 21.1 49 49 WSW 7 11 29.90 1013 10 16 0.00 0.00
6:53 pm 18:53 Sunny 90 32.2 70 21.1 52 52 SW 7 11 29.89 1012 10 16 0.00 0.00
7:53 pm 19:53 Sunny 88 31.1 69 20.6 54 54 S 3 6 29.89 1012 10 16 0.00 0.00
8:53 pm 20:53 Clear 85 29.4 73 22.8 68 68 Calm 29.89 1012 10 16 0.00 0.00
9:53 pm 21:53 Clear 86 30 71 21.7 61 61 S 9 15 29.90 1013 10 16 0.00 0.00
10:53 pm 22:53 Clear 85 29.4 71 21.7 63 63 SSW 8 13 29.92 1013 10 16 0.00 0.00
11:53 pm 23:53 Clear 84 28.9 71 21.7 65 65 SSW 10 17 29.93 1013 10 16 0.00 0.00

Powered by AerisWeather